TimeEST,TemperatureF,Dew PointF,Humidity,Sea Level PressureIn,VisibilityMPH,Wind Direction,Wind SpeedMPH,Gust SpeedMPH,PrecipitationIn,Events,Conditions,WindDirDegrees,DateUTC
12:53 AM,44.1,30.0,58,29.90,10.0,WNW,16.1,29.9,N/A,,Partly Cloudy,290,2013-11-11 05:53:00
1:53 AM,43.0,27.0,53,29.93,10.0,WNW,16.1,28.8,N/A,,Clear,290,2013-11-11 06:53:00
2:53 AM,42.1,27.0,55,29.94,10.0,WNW,11.5,19.6,N/A,,Clear,300,2013-11-11 07:53:00
3:53 AM,41.0,27.0,57,29.97,10.0,WNW,8.1,-,N/A,,Clear,300,2013-11-11 08:53:00
4:53 AM,41.0,27.0,57,30.01,10.0,West,13.8,23.0,N/A,,Clear,280,2013-11-11 09:53:00
5:53 AM,39.9,26.1,58,30.04,10.0,WNW,13.8,21.9,N/A,,Clear,290,2013-11-11 10:53:00
6:53 AM,39.9,26.1,58,30.08,10.0,West,10.4,-,N/A,,Clear,280,2013-11-11 11:53:00
7:53 AM,42.1,26.1,53,30.11,10.0,West,15.0,18.4,N/A,,Clear,280,2013-11-11 12:53:00
8:53 AM,44.1,25.0,47,30.11,10.0,West,12.7,24.2,N/A,,Clear,280,2013-11-11 13:53:00
9:53 AM,45.0,26.1,48,30.10,10.0,WNW,15.0,23.0,N/A,,Clear,300,2013-11-11 14:53:00
10:53 AM,46.9,27.0,46,30.10,10.0,WNW,18.4,24.2,N/A,,Clear,290,2013-11-11 15:53:00
11:53 AM,48.0,25.0,41,30.06,10.0,WNW,12.7,-,N/A,,Clear,290,2013-11-11 16:53:00
12:53 PM,50.0,25.0,38,30.05,10.0,West,11.5,-,N/A,,Clear,280,2013-11-11 17:53:00
1:53 PM,51.1,25.0,36,30.03,10.0,WSW,10.4,-,N/A,,Clear,240,2013-11-11 18:53:00
2:53 PM,52.0,25.0,35,30.02,10.0,WSW,6.9,-,N/A,,Clear,240,2013-11-11 19:53:00
3:53 PM,48.0,32.0,54,30.03,10.0,SW,11.5,-,N/A,,Partly Cloudy,230,2013-11-11 20:53:00
4:53 PM,48.0,33.1,56,30.01,10.0,SW,11.5,-,N/A,,Overcast,230,2013-11-11 21:53:00
5:53 PM,48.0,33.1,56,30.01,10.0,WSW,8.1,-,N/A,,Overcast,240,2013-11-11 22:53:00
6:53 PM,48.0,34.0,58,29.99,10.0,WSW,6.9,-,N/A,,Overcast,240,2013-11-11 23:53:00
7:53 PM,48.9,33.1,54,29.98,10.0,SW,8.1,-,N/A,,Overcast,230,2013-11-12 00:53:00
8:53 PM,50.0,36.0,59,29.97,10.0,SW,9.2,-,N/A,,Overcast,220,2013-11-12 01:53:00
9:53 PM,52.0,39.0,61,29.95,10.0,SW,10.4,20.7,N/A,,Overcast,220,2013-11-12 02:53:00
10:53 PM,53.1,39.0,59,29.94,10.0,WSW,10.4,-,N/A,,Overcast,240,2013-11-12 03:53:00
11:53 PM,53.1,34.0,48,29.93,10.0,WSW,12.7,21.9,N/A,,Overcast,240,2013-11-12 04:53:00